Showing default

NIMIQ 1, 25740

Orbit data source: Space-Track

NIMIQ 1, 25740 is a payload satellite owned by Telesat (CA) in GEO that was launched on Thu, 20 May 1999 UTC via a PROTON-K/DM-2M launch vehicle from the Tyuratam Missile And Space Complex (TTMTR). Payload-class satellites include a variety of spacecraft equipped with specific instruments for various scientific and technological missions. These include communications satellites like Starlink; space stations such as the ISS; scientific satellites like the Hubble; Earth observation satellites from companies like Planet Labs, Umbra, and HawkEye 360; GPS; miniature CubeSats for education and research; and military/defense satellites.

Loading next visibility...
Identifier
25740, 1999-027A
Orbit
GEO
Country
Flag of CACA
Related business
Manufacturer
LMCSS
Mission
Non-operational Commercial Communications
Bus & Motor
A2100AX, LEROS 1C
Mass
3,646 kg wet, ~1,500 kg dry
Launch date (UTC)
1999-05-20 (27 years ago)
Launch vehicle
PROTON-K/DM-2M
Launch site
Tyuratam Missile And Space Complex (TTMTR)
Object type
Payload
Rocket body
Debris
Shape & HBR
Box + 1 Pan, 10.5 m
Radar Cross Section
17.700 m², Large (>1 m²)

Expand to show TLE details & history
Last TLE update: 2 days ago

TLE from 2 days ago
0 NIMIQ 1
1 25740U 99027A   26171.38933449 -.00000033  00000-0  00000+0 0  9991
2 25740   6.6347  70.7708 0010658 316.8730 296.0155  0.98578074 98804
Epoch: 2026-06-20T09:20Z
TLE epoch observation values (Epoch: 2026-06-20T09:20:38.499Z)
Latitude
-6.35783°
Longitude
-85.30559°
Altitude
36,249.049 km
Speed
3.059 km/s
True Right ascension
21h 33m 50s
True Declination
-6° 21' 05"
Sunlit
Object was in daylight at epoch
Visualization orbit readout
Latitude
Unknown
Longitude
Unknown
Altitude
Unknown
Speed
Unknown
Apparent Right ascension
Unknown
Apparent Declination
Unknown
Sunlit
N/A
Visualization observer readout
Local Sidereal Time
00:27:49
Azimuth
Unknown
Elevation
Unknown
Doppler factor
Unknown
Orbital elements
Apogee altitude
36,314.681 km
Perigee altitude
36,223.774 km
Semi-major axis
42,647.364 km
Eccentricity
0.00107
Inclination
6.6347°
RAAN
70.7708°
Arg. of periapsis
316.873°
True anomaly
295.90568°
Mean anomaly
296.0155°
Eccentric anomaly
295.9606°
Mean motion
0.24644 °/min
Orbital period
1,460.82 mins
BSTAR
0
Loading maneuver chart data...
Computing Atmospheric mass density...
Loading historical data...
Loading historical data...
Loading historical data...
Loading historical data...
Loading historical data...
Loading historical data...
Loading historical data...
Other satellites on launch #27 in the year 1999 (1999-05-20 UTC)

Documentation

Showing up to 5 results
|